Regional Weather Roundup
Issued by NWS

Home | Current Version | Previous Version | Text Only | Print | Product List | Glossary On
Versions: 1 2 3 4 5 6 7 8 9 10 11 12 13 14 15 16 17 18 19 20 21 22 23 24 25 26 27 28 29 30 31 32 33 34 35 36 37 38 39 40 41 42 43 44 45 46 47
000
ASUS45 KREV 261010
RWRNV
NEVADA REGIONAL WEATHER ROUNDUP
NATIONAL WEATHER SERVICE RENO NV
200 AM PST FRI DEC 26 2014

NOTE: "FAIR" INDICATES FEW OR NO CLOUDS BELOW 12,000 FEET WITH NO
SIGNIFICANT WEATHER AND/OR OBSTRUCTIONS TO VISIBILITY.

NVZ001-003-004-261100-
WESTERN NEVADA

CITY           SKY/WX    TMP DP  RH WIND       PRES   REMARKS
RENO           MOCLDY    32  18  56 NW3       30.12R
CARSON CITY    CLOUDY    30  19  64 NE6       30.11R
MINDEN         FAIR      21  18  86 CALM      30.12
FALLON         CLEAR     14  11  87 SE6       30.12R
LOVELOCK       CLEAR     26  16  65 NE5       30.11R
HAWTHORNE      CLOUDY    32  19  59 CALM      30.11R
$$

NVZ002-CAZ072-073-261100-
NORTHERN AND CENTRAL SIERRA

CITY           SKY/WX    TMP DP  RH WIND       PRES   REMARKS
S. LAKE TAHOE  CLOUDY    26  11  52 N9        30.03R
TRUCKEE        MOCLDY    23  14  68 N8        30.06S
SQUAW VLY 8000   N/A     16  12  86 VRB18       N/A  WCI  -1
BLUE CANYON    CLEAR     29  10  45 NE15G30   30.03R
MAMMOTH LAKES  CLOUDY    19   9  63 W8        30.03R
BRIDGEPORT     CLOUDY    21   7  54 NE6       30.01R
$$

NVZ030-031-036-261100-
NORTHERN NEVADA

CITY           SKY/WX    TMP DP  RH WIND       PRES   REMARKS
ELKO           CLOUDY    24  15  68 NW5       30.02R
WINNEMUCCA     PTCLDY    23  18  81 CALM      30.11R
WENDOVER       MOCLDY    27  14  59 NW24G33   29.94R
$$

NVZ035-037-261100-
CENTRAL NEVADA

CITY           SKY/WX    TMP DP  RH WIND       PRES   REMARKS
ELY            CLOUDY    17  13  84 NW8       29.91R
EUREKA           N/A     22  11  62 N14       29.99R
$$

NVZ013-014-261100-
SOUTH CENTRAL NEVADA

CITY           SKY/WX    TMP DP  RH WIND       PRES   REMARKS
TONOPAH        CLEAR     24   9  52 N15       30.00R
$$

NVZ017-020-022-261100-
SOUTHERN NEVADA

CITY           SKY/WX    TMP DP  RH WIND       PRES   REMARKS
LAS VEGAS      CLEAR     43  10  26 NW17      29.91R
N. LAS VEGAS   CLEAR     42  10  27 NW15G25   29.94R
NELLIS AFB     CLEAR     40  13  33 NW7       29.97R
HENDERSON      CLEAR     40  11  30 N16       29.95R
MERCURY        CLEAR     34  11  38 NE13      29.97R
$$



USA.gov is the U.S. government's official web portal to all federal, state and local government web resources and services.